Wetbulb
33.88 33.90 34.99 34.01 34.59 34.53 36.08 36.00 35.92 35.68 36.31 36.10 35.45 35.16 35.45 35.10 36.10 37.37 39.55 41.62 43.18 43.01 42.74 42.61 44.07 45.52 46.96 47.09 47.99 48.24 49.46 52.99 56.86 60.04 59.29 60.20 62.06 62.20 62.65 63.04 61.82 61.14 61.34
34.23 34.87 32.70 32.06 33.09 33.68 34.99 35.28 35.59 36.30 36.30 36.07 35.45 34.50 34.22 35.15 35.89 36.82 38.97 43.09 43.63 44.43 45.44 43.28 43.32 44.27 45.61 46.25 46.55 47.02 47.66 51.34 54.55 58.39 58.14 55.51 57.52 59.61 60.50 62.01 62.69 60.99 60.73
33.48 33.26 33.41 30.72 31.31 32.87 33.78 35.41 35.70 35.96 36.57 37.08 36.47 35.49 35.19 35.42 35.29 35.59 37.85 42.67 44.91 44.83 45.53 44.54 42.92 43.96 45.36 45.20 45.63 46.35 46.40 47.12 52.39 54.33 57.50 54.40 53.15 55.93 58.30 59.51 62.24 62.29 59.61
32.90 32.75 31.68 30.60 32.29 32.62 33.67 34.79 35.71 36.19 37.29 36.49 33.86 32.90 33.15 33.08 35.31 36.75 37.94 39.46 41.25 44.15 45.01 43.43 42.22 42.49 45.20 45.54 45.45 46.76 46.36 47.34 48.51 52.86 58.10 58.58 56.95 53.13 54.04 57.88 59.73 62.51 60.96
33.00 32.26 31.70 30.85 31.87 32.23 32.61 34.36 35.38 35.96 36.21 35.60 34.94 33.36 32.27 33.58 34.19 35.12 36.59 37.01 38.56 40.09 40.91 40.87 41.39 41.41 44.03 45.74 45.40 45.45 45.91 47.23 48.15 50.14 52.44 57.00 57.40 58.18 56.42 53.61 57.24 61.16 61.68
32.88 32.47 32.75 32.91 31.60 31.51 32.62 32.81 34.13 35.30 34.79 34.39 34.43 34.21 32.68 32.75 32.87 34.03 35.42 36.56 37.35 38.50 39.35 41.07 41.27 44.49 44.34 45.69 44.97 45.74 46.33 46.71 47.97 49.74 51.24 53.05 55.29 56.17 56.62 56.04 56.56 58.13 60.43
32.34 31.96 32.03 31.64 32.06 31.45 32.12 33.17 33.78 34.08 34.33 34.42 34.57 34.85 33.58 33.00 33.36 33.30 35.49 36.37 37.38 39.01 39.47 41.07 42.33 43.85 44.60 45.33 45.14 45.61 46.44 46.92 47.39 48.64 50.41 52.51 53.07 55.49 58.24 57.43 56.96 57.39 59.31
32.53 32.17 32.77 31.92 32.79 33.11 32.76 33.39 34.24 34.46 34.68 34.29 34.46 35.67 35.61 34.84 35.44 36.91 38.38 38.37 38.75 41.29 42.80 42.40 43.61 43.54 44.19 44.57 45.55 45.93 46.58 47.66 48.50 49.45 51.00 52.35 53.53 54.95 57.74 57.71 57.20 55.41 56.94
32.82 32.89 32.72 32.78 32.60 32.88 33.36 33.27 33.96 34.78 35.00 34.76 34.21 34.14 35.94 36.35 36.78 39.94 41.58 40.66 38.83 40.88 40.65 42.52 42.96 42.84 43.51 43.90 44.73 45.73 45.90 46.85 47.34 48.15 48.86 50.77 53.67 55.31 58.46 59.16 58.78 57.07 54.37
32.85 32.77 33.38 33.40 33.30 33.19 33.94 33.24 34.24 34.63 34.77 34.34 34.26 35.58 35.50 37.78 40.66 40.56 40.39 38.58 37.42 37.84 39.12 42.06 42.52 42.26 41.98 42.08 43.15 44.90 45.24 45.42 45.76 46.37 46.60 48.04 49.50 52.92 60.51 59.68 59.49 59.15 57.50
32.83 32.47 32.63 33.62 33.79 33.47 33.42 33.70 34.29 33.94 33.62 34.27 34.85 34.88 36.09 37.69 38.95 38.28 39.30 38.46 37.89 37.76 39.40 41.86 42.30 40.35 40.09 40.75 41.64 43.23 44.25 43.95 44.07 44.43 44.19 44.86 47.61 50.61 55.79 60.43 60.16 59.57 59.30
33.48 32.83 32.96 33.49 32.60 33.25 33.22 33.84 33.59 33.47 34.00 35.10 35.52 35.52 36.56 37.61 36.97 37.68 40.62 38.67 37.95 40.36 40.77 42.06 40.48 38.80 38.91 39.45 40.09 41.84 43.13 42.70 42.51 42.32 43.06 42.82 45.05 45.26 50.54 53.38 54.50 58.18 59.33
34.46 33.68 33.53 34.05 33.86 33.10 33.79 33.86 33.77 33.45 34.61 35.65 35.18 35.02 35.21 36.11 35.86 35.90 37.80 39.62 39.80 40.40 40.87 40.83 38.10 37.49 37.87 37.87 39.06 41.21 41.68 42.21 42.31 41.09 40.86 41.34 42.56 42.18 43.87 48.69 51.08 52.38 54.81
37.62 34.36 33.27 33.95 34.19 34.64 34.33 34.43 34.04 34.04 34.86 34.81 35.08 34.26 34.18 35.93 35.45 36.13 37.78 38.56 39.76 39.88 40.27 38.60 35.78 35.65 36.89 36.77 37.59 39.89 39.97 40.21 40.76 41.52 39.68 38.80 39.86 40.19 41.64 44.17 43.98 47.34 52.80
38.64 36.05 33.97 33.33 33.93 34.20 34.39 34.83 34.51 34.85 34.60 34.42 33.83 33.23 34.85 36.12 36.32 35.95 36.03 39.14 39.00 38.15 40.75 37.46 34.66 33.57 34.46 35.29 35.64 37.31 38.43 37.24 37.96 39.24 39.21 38.89 39.20 39.12 39.70 40.76 40.16 41.46 46.60
39.92 38.27 36.40 35.44 35.05 35.89 34.61 35.45 34.77 34.79 34.77 34.10 34.08 35.10 35.79 36.95 35.91 35.25 35.63 35.92 35.62 35.53 36.44 36.02 32.92 30.72 33.24 34.75 35.86 35.78 37.52 35.50 34.35 35.16 36.64 37.61 36.62 37.65 38.69 39.00 38.05 37.55 39.14
40.33 39.61 37.58 36.13 35.42 35.12 35.67 33.99 34.45 35.38 34.27 34.39 35.48 36.02 35.68 36.86 35.88 35.15 35.27 35.22 33.58 33.09 33.63 34.67 33.31 31.25 29.80 33.80 34.68 35.36 36.14 33.50 32.02 32.37 33.32 34.62 34.59 35.27 38.58 39.73 38.79 37.86 37.22
41.08 39.72 38.25 36.03 35.43 35.35 34.65 34.52 35.49 34.81 34.55 34.47 35.43 36.50 35.78 35.26 35.97 34.52 34.38 33.77 33.12 31.90 31.48 32.73 33.77 32.56 32.33 33.17 33.38 33.74 35.92 32.61 30.60 30.42 30.83 31.23 31.44 33.19 36.68 41.03 40.43 39.51 38.92
41.93 39.02 37.52 36.42 35.30 35.28 35.44 35.09 34.67 34.69 34.58 34.49 35.05 36.52 36.02 34.75 35.57 34.99 33.73 33.33 32.45 32.17 31.39 33.22 31.77 31.82 30.94 33.28 32.74 32.83 34.62 33.29 30.29 30.36 30.26 29.89 29.89 33.34 35.67 39.10 38.66 37.38 38.16
40.61 38.09 37.39 36.89 35.36 35.41 35.34 34.40 34.02 33.86 33.85 35.44 35.88 36.43 36.27 35.06 34.41 33.71 33.33 33.33 32.95 33.69 32.57 32.51 32.90 33.61 31.16 32.87 32.55 31.90 33.50 33.39 32.13 30.56 29.88 31.38 30.71 32.45 33.17 31.93 34.50 34.49 35.79
40.22 39.40 37.57 36.29 35.82 35.88 35.54 33.79 33.97 33.57 35.85 36.81 37.17 36.70 35.77 34.86 34.27 33.45 33.63 33.25 33.01 32.94 31.62 32.24 31.42 32.03 31.66 30.32 31.95 32.74 29.72 29.04 30.99 30.45 29.15 27.47 31.44 32.41 33.21 32.16 29.44 30.50 31.77
39.40 39.52 37.26 36.51 36.32 35.99 35.61 34.25 33.47 36.05 36.68 37.08 37.01 35.98 35.18 35.13 35.21 32.81 32.19 33.29 32.15 30.97 30.70 30.35 30.33 30.87 30.65 32.14 31.08 31.20 30.97 30.68 29.35 28.98 28.77 27.86 30.92 32.19 32.95 31.50 32.23 31.80 30.58
40.10 39.27 38.40 37.08 36.86 36.28 36.44 35.04 35.95 36.34 36.80 36.22 35.26 34.85 34.92 34.51 33.94 32.06 31.37 31.43 31.52 30.61 30.41 30.35 29.30 29.31 30.24 28.01 31.54 31.18 30.77 30.05 27.23 26.28 26.55 29.48 30.73 30.86 29.14 31.29 31.32 29.08 29.41
40.08 39.56 37.37 36.59 36.73 37.10 37.20 37.48 37.14 37.56 36.67 35.49 34.76 33.88 33.04 33.19 33.02 33.39 32.57 30.94 30.61 29.92 30.66 30.30 29.33 29.26 28.39 27.72 26.32 26.52 26.71 26.51 26.20 25.45 26.88 26.65 26.64 26.07 26.43 27.14 28.96 28.48 27.62
41.22 39.64 38.86 38.58 38.39 38.19 38.16 37.99 37.02 37.39 35.77 35.38 34.86 33.70 33.76 33.47 32.65 33.07 32.74 32.89 31.97 32.79 31.72 31.41 30.86 29.64 28.47 28.63 29.96 27.90 26.83 26.55 26.41 24.69 25.14 24.59 25.31 25.56 26.46 26.87 27.51 27.04 26.03
42.00 39.83 39.25 39.39 39.67 38.57 38.70 38.05 38.04 37.69 36.32 34.58 33.66 33.41 32.96 32.37 32.95 32.21 32.45 33.14 33.83 33.48 34.57 34.44 33.51 32.54 33.21 32.90 33.04 32.15 31.61 30.73 26.80 22.80 21.76 22.21 22.54 23.32 25.09 24.67 25.20 24.64 24.31
MSLP
1023.82 1024.17 1024.24 1024.23 1024.23 1024.25 1024.40 1024.71 1025.01 1025.24 1025.15 1025.18 1025.07 1024.81 1024.61 1024.31 1023.94 1023.80 1023.34 1023.01 1022.78 1022.75 1022.57 1022.50 1022.27 1021.67 1021.04 1020.77 1020.36 1019.20 1018.48 1017.86 1017.11 1017.07 1017.43 1017.62 1017.71 1018.11 1018.56 1019.01 1019.58 1020.09 1020.44
1023.86 1024.16 1024.17 1024.33 1024.60 1024.80 1024.85 1025.16 1025.27 1025.19 1025.13 1025.11 1025.04 1025.04 1024.87 1024.63 1024.34 1023.91 1023.51 1023.00 1022.98 1022.96 1022.67 1022.61 1022.34 1021.90 1021.26 1021.03 1020.19 1019.37 1019.00 1018.14 1017.23 1016.88 1017.15 1017.64 1018.31 1018.44 1018.72 1018.92 1019.39 1019.77 1020.08
1023.72 1024.04 1024.20 1024.55 1024.72 1025.04 1025.25 1025.23 1025.21 1025.11 1024.99 1024.83 1024.84 1024.75 1024.67 1024.63 1024.42 1024.08 1023.68 1023.16 1023.07 1022.88 1022.84 1022.51 1022.27 1021.89 1021.29 1020.81 1020.36 1019.85 1019.63 1018.72 1017.52 1017.21 1016.79 1017.14 1017.64 1018.38 1018.76 1019.13 1019.09 1019.51 1019.96
1023.60 1023.94 1024.29 1024.77 1024.89 1025.11 1025.04 1025.05 1025.14 1024.98 1024.84 1024.71 1024.88 1024.99 1025.02 1025.13 1024.78 1024.38 1023.82 1023.54 1023.17 1022.77 1022.65 1022.36 1022.20 1021.85 1021.30 1020.80 1020.45 1020.10 1019.32 1018.77 1017.92 1017.24 1016.57 1016.68 1016.70 1017.51 1018.65 1018.93 1019.05 1019.31 1019.68
1023.44 1024.00 1024.36 1024.77 1024.93 1025.09 1025.11 1025.05 1024.99 1024.87 1024.72 1024.72 1024.68 1024.82 1024.97 1024.76 1024.54 1024.23 1023.78 1023.48 1023.30 1022.82 1022.76 1022.44 1022.02 1021.72 1021.19 1020.59 1020.39 1019.67 1019.44 1018.78 1018.30 1017.89 1017.20 1017.13 1016.82 1017.10 1017.49 1018.02 1018.61 1019.13 1019.15
1023.43 1023.90 1024.36 1024.65 1024.96 1025.16 1025.16 1025.04 1024.87 1024.62 1024.68 1024.63 1024.68 1024.66 1024.67 1024.62 1024.52 1024.25 1023.98 1023.66 1023.35 1022.95 1022.67 1022.36 1021.96 1021.51 1021.13 1020.80 1020.41 1020.01 1019.07 1018.69 1018.58 1018.25 1017.84 1017.47 1017.26 1017.29 1017.21 1017.35 1017.90 1018.48 1018.51
1023.30 1023.99 1024.31 1024.66 1024.88 1025.03 1025.00 1024.87 1024.67 1024.60 1024.53 1024.59 1024.60 1024.51 1024.38 1024.34 1024.32 1024.30 1024.05 1023.59 1023.30 1022.92 1022.59 1022.16 1021.79 1021.61 1021.15 1020.68 1019.99 1019.58 1019.19 1019.13 1018.66 1018.46 1018.14 1018.05 1017.72 1017.54 1017.20 1017.20 1017.68 1017.98 1018.44
1023.04 1023.71 1024.07 1024.41 1024.64 1024.65 1024.65 1024.59 1024.49 1024.53 1024.61 1024.67 1024.68 1024.56 1024.47 1024.38 1024.17 1024.03 1023.79 1023.59 1023.38 1022.83 1022.23 1021.81 1021.71 1021.67 1021.23 1020.65 1020.25 1019.78 1019.35 1018.87 1018.85 1018.49 1018.33 1018.00 1017.85 1017.65 1017.28 1017.15 1017.19 1017.94 1018.21
1022.82 1023.40 1023.83 1024.07 1024.33 1024.39 1024.36 1024.32 1024.43 1024.60 1024.69 1024.76 1024.70 1024.61 1024.47 1024.35 1024.32 1024.09 1023.91 1023.72 1023.40 1022.67 1022.27 1021.82 1021.80 1021.65 1021.28 1020.88 1020.52 1019.82 1019.73 1019.52 1019.32 1018.89 1018.45 1018.08 1017.77 1017.36 1017.06 1016.89 1016.84 1017.24 1017.92
1022.60 1023.20 1023.51 1023.78 1023.91 1023.94 1024.12 1024.29 1024.30 1024.51 1024.65 1024.59 1024.54 1024.62 1024.49 1024.32 1024.29 1024.19 1023.95 1023.73 1023.46 1022.97 1022.39 1021.88 1021.89 1021.77 1021.45 1021.04 1020.69 1020.31 1020.03 1019.78 1019.57 1019.01 1018.34 1017.99 1017.67 1017.00 1016.25 1016.45 1016.80 1017.14 1017.57
1022.27 1022.82 1023.11 1023.45 1023.49 1023.70 1024.02 1024.18 1024.33 1024.45 1024.60 1024.52 1024.54 1024.52 1024.53 1024.40 1024.35 1024.19 1024.02 1023.85 1023.53 1023.04 1022.37 1022.07 1022.13 1022.14 1021.66 1021.34 1021.06 1020.73 1020.40 1020.01 1019.76 1019.32 1018.61 1018.29 1017.70 1017.15 1016.42 1016.30 1016.70 1017.02 1017.24
1021.82 1022.26 1022.55 1022.98 1023.37 1023.44 1023.68 1023.93 1024.20 1024.30 1024.32 1024.36 1024.45 1024.53 1024.48 1024.48 1024.35 1024.17 1023.97 1023.84 1023.60 1022.83 1022.31 1022.28 1022.46 1022.42 1022.11 1021.77 1021.50 1021.17 1020.82 1020.82 1020.34 1019.29 1019.43 1018.70 1018.23 1017.63 1017.23 1016.95 1016.81 1016.97 1017.07
1021.36 1021.83 1022.24 1022.51 1022.80 1023.21 1023.48 1023.79 1023.96 1024.05 1023.98 1024.14 1024.29 1024.42 1024.46 1024.43 1024.40 1024.16 1023.87 1023.67 1023.47 1022.95 1022.62 1022.52 1022.85 1022.80 1022.74 1022.40 1022.01 1021.71 1021.39 1021.17 1020.78 1020.52 1020.12 1019.57 1018.92 1018.74 1018.47 1018.12 1017.96 1017.82 1017.58
1020.92 1021.37 1021.83 1021.91 1022.40 1022.81 1023.05 1023.39 1023.68 1023.76 1023.81 1023.98 1024.25 1024.39 1024.44 1024.39 1024.32 1024.19 1023.92 1023.66 1023.37 1023.16 1023.09 1023.09 1023.36 1023.39 1023.33 1023.07 1022.82 1022.40 1022.07 1021.68 1021.44 1021.22 1021.09 1020.31 1020.42 1019.83 1019.24 1019.38 1019.40 1018.73 1018.18
1020.37 1020.59 1021.12 1021.56 1022.05 1022.45 1022.67 1023.03 1023.43 1023.60 1023.62 1023.81 1024.08 1024.24 1024.21 1024.30 1024.32 1024.20 1024.00 1023.84 1023.64 1023.38 1023.10 1023.51 1023.76 1023.79 1023.56 1023.45 1023.23 1022.87 1022.42 1022.15 1021.97 1021.75 1021.54 1021.34 1021.12 1020.88 1020.21 1020.33 1020.41 1019.84 1018.94
1019.63 1019.90 1020.22 1020.87 1021.43 1021.87 1022.37 1022.74 1023.14 1023.39 1023.39 1023.61 1023.72 1023.77 1024.00 1024.17 1024.20 1024.11 1024.06 1024.04 1023.92 1023.75 1023.72 1023.76 1023.79 1023.94 1023.97 1023.82 1023.45 1023.24 1023.08 1022.88 1022.72 1022.48 1022.24 1021.88 1021.67 1021.25 1021.09 1021.15 1021.18 1021.39 1020.45
1018.93 1019.24 1019.63 1020.10 1020.70 1021.44 1021.79 1022.48 1022.92 1023.22 1023.44 1023.45 1023.45 1023.52 1023.73 1024.04 1024.13 1023.98 1023.92 1023.98 1024.03 1023.92 1023.94 1023.96 1024.00 1024.14 1024.12 1023.94 1023.71 1023.49 1023.35 1023.30 1023.10 1022.84 1022.82 1022.55 1022.31 1022.10 1021.62 1021.76 1021.44 1021.49 1021.57
1018.24 1018.75 1019.16 1019.72 1020.50 1021.02 1021.54 1022.06 1022.48 1022.77 1023.08 1023.28 1023.33 1023.37 1023.48 1023.63 1023.82 1024.00 1023.99 1023.92 1023.81 1023.84 1023.93 1024.04 1024.07 1024.15 1024.13 1023.96 1023.71 1023.44 1023.45 1023.61 1023.51 1023.26 1022.99 1022.84 1022.49 1022.20 1021.99 1021.95 1021.69 1021.44 1021.91
1017.63 1018.10 1018.70 1019.28 1020.00 1020.58 1020.97 1021.52 1022.09 1022.45 1022.59 1022.68 1022.75 1022.85 1023.05 1023.33 1023.52 1023.79 1023.96 1023.94 1023.82 1023.80 1023.77 1023.84 1023.98 1024.05 1024.14 1023.97 1023.76 1023.53 1023.50 1023.64 1023.68 1023.58 1023.42 1023.25 1023.00 1022.98 1022.47 1022.23 1021.87 1021.94 1022.02
1017.24 1017.90 1018.34 1018.84 1019.51 1019.94 1020.58 1021.25 1021.64 1021.91 1022.07 1022.11 1022.34 1022.62 1022.97 1023.16 1023.27 1023.40 1023.60 1023.63 1023.64 1023.73 1023.79 1023.81 1023.83 1023.90 1023.96 1023.91 1023.80 1023.54 1023.53 1023.67 1023.73 1023.73 1023.58 1023.23 1023.23 1023.07 1022.52 1022.51 1022.39 1022.17 1022.16
1016.89 1017.36 1017.96 1018.43 1018.80 1019.46 1020.29 1020.95 1021.30 1021.63 1021.43 1021.60 1021.81 1022.11 1022.27 1022.52 1022.72 1023.02 1023.31 1023.42 1023.48 1023.58 1023.73 1023.80 1023.87 1023.94 1023.94 1023.98 1023.88 1023.80 1023.78 1023.79 1023.60 1023.63 1023.73 1023.71 1023.45 1023.10 1022.94 1022.86 1022.67 1022.55 1022.36
1016.52 1017.00 1017.67 1018.10 1018.40 1019.04 1019.71 1020.21 1020.52 1020.24 1020.70 1021.06 1021.38 1021.66 1021.87 1022.20 1022.44 1022.77 1023.01 1023.23 1023.44 1023.67 1023.79 1023.93 1023.90 1023.86 1023.96 1024.00 1023.86 1023.80 1023.77 1023.95 1024.14 1024.15 1023.98 1023.77 1023.35 1023.09 1023.12 1023.02 1022.74 1022.52 1022.28
1015.62 1016.11 1016.64 1017.29 1017.65 1018.00 1018.42 1019.04 1018.85 1019.41 1019.91 1020.46 1020.82 1021.12 1021.44 1021.71 1021.96 1022.42 1022.75 1023.07 1023.34 1023.57 1023.60 1023.70 1023.71 1023.64 1023.55 1023.60 1023.68 1023.78 1023.84 1023.68 1024.01 1024.03 1024.11 1023.93 1023.73 1023.44 1023.19 1022.86 1022.66 1022.49 1022.23
1014.98 1015.27 1015.92 1016.44 1016.78 1016.97 1017.31 1017.29 1017.70 1018.23 1018.93 1019.46 1019.95 1020.45 1020.92 1021.25 1021.35 1021.65 1022.06 1022.59 1022.71 1022.90 1023.00 1023.14 1023.31 1023.39 1023.53 1023.52 1023.77 1023.77 1023.42 1023.63 1023.66 1023.67 1023.56 1023.61 1023.60 1023.63 1023.46 1023.23 1022.93 1022.88 1022.51
1014.09 1014.58 1015.06 1015.43 1015.53 1015.92 1016.28 1016.50 1016.87 1017.40 1018.01 1018.36 1018.79 1019.27 1019.80 1020.19 1020.50 1020.62 1020.75 1021.12 1021.31 1021.62 1021.94 1022.14 1022.39 1022.51 1022.58 1022.60 1022.54 1022.82 1023.13 1023.31 1023.47 1023.64 1023.73 1023.81 1023.69 1023.58 1023.32 1023.06 1022.92 1022.82 1022.70
1013.43 1014.02 1014.40 1014.79 1014.84 1015.08 1015.26 1015.46 1015.78 1016.30 1016.81 1017.39 1017.86 1018.31 1018.74 1019.07 1019.51 1019.88 1020.12 1020.12 1020.15 1020.27 1020.58 1020.75 1020.93 1021.09 1021.05 1021.21 1021.41 1021.72 1022.13 1022.46 1023.03 1023.54 1023.57 1023.67 1023.59 1023.48 1023.28 1023.10 1022.92 1022.80 1022.79
Wind_Speed
3 2 3 5 6 7 9 8 8 4 3 1 1 2 3 3 3 4 5 6 5 4 3 4 5 5 6 5 7 5 4 2 4 3 4 3 6 7 4 7 6 9 8
4 3 2 5 6 5 7 7 6 5 3 1 1 1 2 2 2 3 4 4 6 7 7 5 5 5 5 6 6 6 3 3 2 1 3 3 2 2 3 3 7 9 8
6 4 3 4 5 8 7 8 7 6 4 3 1 2 2 2 3 4 3 4 3 7 9 5 5 5 4 5 6 6 5 3 2 3 2 3 3 3 4 5 4 6 6
4 3 4 5 7 6 5 6 5 4 4 3 1 1 1 1 3 3 2 2 4 2 5 5 5 5 4 5 5 5 5 4 3 3 1 1 3 4 3 3 6 5 8
8 7 6 7 6 6 6 6 5 4 3 3 4 2 1 2 2 2 3 3 4 5 5 5 6 5 4 4 6 7 6 3 2 3 2 0 3 1 3 4 4 5 8
7 6 5 6 5 4 5 4 4 2 1 3 4 5 2 2 2 3 3 4 3 4 5 6 5 5 4 4 5 6 6 5 4 4 4 1 2 2 1 2 6 6 6
6 7 7 5 5 7 6 4 3 3 3 3 1 1 2 1 2 2 2 4 3 3 5 4 5 4 4 5 6 7 5 4 4 5 3 3 3 1 0 1 3 4 3
5 7 7 7 7 7 7 5 3 4 4 3 4 3 3 2 1 2 3 3 3 3 5 5 4 5 5 6 6 5 4 6 4 6 4 3 4 3 4 2 4 3 2
6 7 7 7 7 7 8 7 4 6 5 4 3 3 4 4 4 4 3 2 4 4 5 4 5 6 6 7 7 4 4 5 4 5 4 3 4 3 7 4 2 3 4
6 6 7 7 6 6 6 5 5 7 5 4 3 2 3 3 5 3 2 4 5 5 5 4 4 5 6 8 8 5 6 5 5 4 4 3 3 5 6 6 4 3 6
6 7 7 7 7 5 6 6 6 6 5 4 3 2 3 5 3 3 4 5 5 6 4 5 4 6 7 7 7 8 7 7 7 6 6 6 6 3 3 5 5 5 5
6 7 7 7 7 7 7 7 6 6 5 6 4 3 3 4 3 3 3 5 5 5 4 5 5 6 7 7 8 8 8 7 8 10 7 8 6 9 7 5 5 1 2
5 5 5 7 7 6 6 6 6 6 5 6 5 3 2 3 1 3 4 4 5 6 5 6 6 6 7 8 8 7 7 7 8 9 9 9 9 9 7 7 4 3 1
6 5 5 6 7 6 7 7 6 6 5 6 5 3 3 3 1 1 4 5 6 4 4 6 5 5 5 7 7 7 6 7 7 8 8 10 9 8 7 7 7 5 2
6 6 6 7 6 7 7 6 6 6 5 4 5 4 5 4 1 1 3 4 4 4 4 6 5 5 5 5 6 6 6 6 6 6 7 8 11 14 11 6 8 7 4
7 6 7 8 7 8 7 7 7 6 5 5 4 4 5 5 3 1 2 4 3 5 5 5 5 6 4 11 11 6 4 6 5 5 5 6 10 10 11 9 12 9 5
8 7 7 8 7 7 8 8 7 6 6 4 4 3 5 5 4 3 1 3 1 3 4 4 5 5 4 8 10 9 4 4 5 5 5 5 6 7 5 1 6 8 10
8 7 6 6 7 6 7 7 7 7 6 6 5 4 4 4 5 3 1 2 2 2 2 3 3 3 2 7 8 6 3 4 4 5 5 5 6 8 7 3 3 6 5
7 7 7 6 7 8 8 8 7 7 6 7 7 6 6 5 4 3 3 3 1 1 0 2 3 2 0 4 7 5 3 3 3 4 5 5 5 9 10 3 4 3 3
6 8 8 6 8 8 8 8 7 7 8 7 7 6 6 6 5 3 5 3 2 1 1 2 3 4 2 3 2 3 3 2 2 1 3 6 5 8 10 5 4 4 3
9 8 8 9 9 8 9 8 7 9 9 7 6 6 7 7 6 5 4 4 4 3 2 3 2 5 5 4 2 1 2 0 2 1 1 2 5 6 7 6 4 3 3
8 9 8 8 8 8 9 8 9 10 7 7 7 7 7 6 5 6 4 4 5 4 4 3 4 3 5 7 6 4 5 3 2 2 2 4 6 7 8 5 7 5 4
9 8 10 9 8 9 11 10 12 8 8 7 8 8 7 7 6 6 6 4 5 4 5 4 4 4 4 5 9 7 7 6 4 3 5 5 6 8 6 7 9 5 3
10 9 8 9 10 10 11 14 9 10 9 9 9 8 8 7 7 5 5 5 5 5 5 5 5 4 3 4 4 4 4 5 3 3 3 3 4 4 4 4 5 3 2
8 8 11 11 13 10 12 12 9 9 9 10 9 9 8 10 8 8 8 8 7 8 7 6 5 5 5 6 10 9 6 5 4 2 1 3 2 3 4 3 4 4 4
5 6 8 8 10 9 12 11 11 12 11 10 8 8 8 8 8 7 7 11 12 15 16 14 10 6 10 10 16 17 15 13 10 3 3 3 4 4 4 4 4 2 3
Wind_Direction
167 140 79 90 93 67 108 124 125 136 101 74 289 294 309 325 339 333 340 0 324 347 345 328 316 323 324 324 310 314 315 272 220 139 118 125 140 147 144 174 174 177 177
190 134 101 77 69 112 119 111 122 137 127 165 262 251 296 303 296 303 324 62 58 16 338 326 315 319 328 310 336 347 323 285 315 184 129 149 108 151 151 170 171 179 175
182 162 131 77 112 124 140 150 168 158 174 186 340 337 10 342 337 335 333 353 11 58 313 321 318 315 321 329 329 337 321 301 304 323 142 132 172 123 159 191 175 175 179
157 164 143 106 137 159 159 157 165 175 201 197 175 99 162 262 267 252 289 336 352 239 289 337 319 320 305 310 323 306 320 317 321 314 127 5 129 140 150 164 185 182 196
173 178 152 148 170 168 159 160 189 225 230 193 191 159 207 231 271 295 335 341 323 337 336 315 319 315 310 312 310 326 314 317 315 329 340 162 46 24 152 157 159 193 190
190 166 150 146 142 156 152 182 206 259 19 135 163 163 196 296 334 310 335 331 320 311 328 311 309 311 306 324 314 295 321 346 317 308 293 309 143 180 153 110 164 180 175
175 172 166 156 149 150 170 166 164 62 122 121 81 339 300 3 358 340 310 322 336 298 314 308 339 319 340 323 325 319 329 319 326 308 290 263 252 316 46 156 152 165 136
180 185 180 177 169 162 167 161 135 104 120 88 80 55 10 16 4 297 328 339 303 301 322 342 353 342 340 341 326 303 324 336 310 297 269 269 255 227 236 214 140 114 149
189 185 177 187 180 172 183 172 137 116 128 130 110 41 32 23 6 343 37 336 302 329 335 15 10 343 349 344 332 348 347 335 326 304 297 277 260 231 232 216 159 142 170
188 178 188 193 198 190 180 169 137 141 159 150 112 89 17 28 66 13 35 341 326 327 333 25 9 350 352 354 350 347 2 350 340 328 345 2 303 258 198 198 194 182 205
209 196 198 203 199 181 169 172 144 143 148 165 135 80 20 61 77 49 338 336 323 312 1 23 24 358 2 360 359 351 12 6 346 343 19 9 358 333 22 178 183 196 196
213 203 196 190 185 190 172 172 159 155 156 169 154 133 89 93 49 57 332 340 325 323 7 54 43 12 9 2 1 1 18 8 3 15 359 18 18 25 24 44 32 118 173
196 210 176 190 186 180 173 171 170 174 165 150 168 163 138 125 107 351 347 339 322 335 359 83 44 29 17 9 1 4 15 14 19 19 4 13 25 31 9 26 41 21 345
253 210 201 194 181 183 171 169 178 175 163 128 175 182 196 191 134 346 356 349 342 334 41 92 67 33 31 21 9 4 17 20 24 28 16 26 15 34 24 27 9 354 5
247 218 192 196 187 181 181 166 168 172 171 143 147 181 190 196 207 13 352 349 21 8 52 84 57 36 27 15 5 2 18 20 23 23 20 25 30 27 41 40 5 8 6
233 225 192 185 187 181 182 171 173 180 165 159 173 184 147 180 211 225 327 20 9 52 66 88 70 41 18 353 1 15 17 28 37 25 17 32 22 16 32 57 59 28 39
227 212 203 185 179 175 169 168 173 162 177 173 210 189 158 176 207 225 36 21 55 68 74 103 102 76 27 8 5 5 50 22 18 24 16 31 23 14 15 89 77 53 47
214 210 201 172 167 166 163 157 161 171 177 193 217 215 196 170 194 237 292 172 141 71 85 125 121 99 37 8 5 15 114 65 29 25 21 26 15 9 357 6 41 61 25
202 198 185 171 161 168 170 161 165 175 184 201 209 213 196 196 178 243 219 209 126 15 167 167 153 133 41 8 4 7 145 111 54 27 29 34 22 2 11 23 36 54 40
177 173 180 166 163 186 167 163 182 182 198 206 211 206 189 195 207 198 210 220 179 218 202 195 195 210 252 312 15 50 82 138 176 314 359 13 26 16 25 29 19 31 11
188 179 173 177 188 171 163 181 184 204 212 204 202 197 191 196 201 205 191 206 205 207 249 282 249 224 210 235 235 89 90 149 226 200 300 312 343 359 5 17 18 310 308
191 187 180 195 191 172 169 194 201 212 195 194 194 191 193 199 193 204 223 217 213 214 235 254 276 252 235 229 235 218 161 161 152 224 275 293 313 331 330 334 323 342 194
201 185 192 194 195 185 184 195 219 187 194 192 198 197 195 198 201 197 217 216 212 217 236 231 244 265 237 223 233 235 216 173 171 195 234 269 316 332 333 338 330 342 357
207 198 184 196 207 201 198 209 197 191 188 197 200 198 194 203 206 206 200 200 209 213 219 226 233 247 245 225 227 232 228 215 186 260 282 281 284 280 277 323 325 316 306
206 185 198 209 219 198 209 209 199 181 195 200 199 197 200 204 209 213 205 207 210 196 211 222 212 215 231 219 204 196 203 215 211 163 308 313 316 303 302 299 278 292 310
220 191 206 214 227 202 213 208 198 191 197 204 203 202 201 203 209 213 232 231 218 209 216 216 206 225 223 200 197 199 203 194 170 162 200 231 240 246 255 255 261 244 264